Weather History for Monarch Pass, CO

Change the Weather History Date:

Sunday, August 10, 2014

  Actual Average (KGUC) Record (KGUC)
Temperature  
Mean Temperature 50 °F -  
Max Temperature 60 °F 75 °F 84 °F (2000)
Min Temperature 39 °F 42 °F 35 °F (1996)
Degree Days  
Heating Degree Days 16    
Moisture  
Dew Point 36 °F    
Average Humidity 70    
Maximum Humidity 93    
Minimum Humidity 42    
Precipitation  
Precipitation 0.00 in - - ()
Sea Level Pressure  
Sea Level Pressure 30.81 in    
Wind  
Wind Speed 15 mph (ENE)    
Max Wind Speed 40 mph    
Max Gust Speed 44 mph    
Visibility 8 miles    
Events Fog , Rain , Thunderstorm    
Averages and records for this station are not official NWS values.
T = Trace of Precipitation, MM = Missing Value Source: NWS Daily Summary

Daily Weather History Graph

Daily Weather History Graph

Search for Another Location

Airport:

Trip Planner

Search our weather history database for the weather conditions in past years. The results will help you decide how hot, cold, wet, or windy it might be!

Date:

Astronomy

Aug. 10, 2014 Rise Set
Actual Time 6:15 AM MDT 8:05 PM MDT
Civil Twilight 5:46 AM MDT 8:34 PM MDT
Nautical Twilight 5:11 AM MDT 9:08 PM MDT
Astronomical Twilight 4:34 AM MDT 9:45 PM MDT
Moon 7:55 PM MDT (8/10) 6:10 AM MDT (8/10)
Length of Visible Light 14h 47m
Length of Day
13h 50m
Full, 100% of the Moon is Illuminated
Aug 10
Full
Aug 10
Full
Aug 17
Last Quarter
Aug 25
New
Sep 2
First Quarter

Hourly Weather History & Observations

Time (MDT) Temp. Windchill Dew Point Humidity Pressure Visibility Wind Dir Wind Speed Gust Speed Precip Events Conditions
12:02 AM 42.8 °F 35.8 °F 33.8 °F 70% 30.79 in 10.0 mi ENE 13.8 mph - N/A   Clear
12:22 AM 42.8 °F 34.8 °F 33.8 °F 70% 30.79 in 10.0 mi ENE 17.3 mph - N/A   Mostly Cloudy
12:44 AM 42.8 °F 35.1 °F 33.8 °F 70% 30.79 in 10.0 mi East 16.1 mph - N/A   Scattered Clouds
1:01 AM 42.8 °F 35.8 °F 33.8 °F 70% 30.79 in 10.0 mi ENE 13.8 mph - N/A   Scattered Clouds
1:24 AM 44.6 °F 37.8 °F 32.0 °F 61% 30.79 in 10.0 mi East 15.0 mph - N/A   Scattered Clouds
1:40 AM 44.6 °F 37.8 °F 32.0 °F 61% 30.79 in 10.0 mi East 15.0 mph - N/A   Mostly Cloudy
1:56 AM 44.6 °F 37.8 °F 32.0 °F 61% 30.79 in 10.0 mi East 15.0 mph - N/A   Scattered Clouds
2:24 AM 44.6 °F 37.8 °F 32.0 °F 61% 30.78 in 10.0 mi ENE 15.0 mph - N/A   Scattered Clouds
2:44 AM 42.8 °F 35.8 °F 32.0 °F 66% 30.78 in 10.0 mi ENE 13.8 mph - N/A   Mostly Cloudy
3:24 AM 42.8 °F 35.8 °F 32.0 °F 66% 30.78 in 10.0 mi ENE 13.8 mph - N/A   Mostly Cloudy
3:38 AM 42.8 °F 35.1 °F 32.0 °F 66% 30.78 in 10.0 mi East 16.1 mph - N/A   Mostly Cloudy
4:03 AM 42.8 °F 34.8 °F 33.8 °F 70% 30.78 in 10.0 mi ENE 17.3 mph - N/A   Mostly Cloudy
4:24 AM 41.0 °F 33.1 °F 32.0 °F 70% 30.78 in 10.0 mi ENE 15.0 mph - N/A   Overcast
4:39 AM 42.8 °F 34.8 °F 32.0 °F 66% 30.78 in 10.0 mi ENE 17.3 mph - N/A   Mostly Cloudy
5:04 AM 41.0 °F 32.5 °F 32.0 °F 70% 30.77 in 10.0 mi ENE 17.3 mph - N/A   Scattered Clouds
5:23 AM 41.0 °F 32.5 °F 32.0 °F 70% 30.77 in 10.0 mi ENE 17.3 mph - N/A   Scattered Clouds
5:44 AM 41.0 °F 33.1 °F 32.0 °F 70% 30.78 in 10.0 mi ENE 15.0 mph - N/A   Clear
6:04 AM 41.0 °F 33.1 °F 32.0 °F 70% 30.79 in 10.0 mi ENE 15.0 mph - N/A   Clear
6:21 AM 41.0 °F 33.1 °F 32.0 °F 70% 30.79 in 10.0 mi ENE 15.0 mph - N/A   Clear
6:43 AM 41.0 °F 33.5 °F 32.0 °F 70% 30.79 in 10.0 mi ENE 13.8 mph - N/A   Clear
7:03 AM 41.0 °F 33.1 °F 32.0 °F 70% 30.79 in 10.0 mi ENE 15.0 mph - N/A   Clear
7:17 AM 42.8 °F 35.8 °F 33.8 °F 70% 30.79 in 10.0 mi ENE 13.8 mph - N/A   Clear
7:44 AM 42.8 °F 35.4 °F 35.6 °F 76% 30.79 in 10.0 mi ENE 15.0 mph - N/A   Clear
8:03 AM 44.6 °F 37.2 °F 35.6 °F 71% 30.80 in 10.0 mi ENE 17.3 mph - N/A   Clear
8:24 AM 44.6 °F 37.2 °F 35.6 °F 71% 30.80 in 10.0 mi ENE 17.3 mph - N/A   Clear
8:43 AM 44.6 °F 38.1 °F 35.6 °F 71% 30.81 in 10.0 mi East 13.8 mph - N/A   Clear
9:02 AM 44.6 °F 38.4 °F 35.6 °F 71% 30.81 in 10.0 mi ENE 12.7 mph - N/A   Clear
9:24 AM 46.4 °F 40.4 °F 35.6 °F 66% 30.82 in 10.0 mi ENE 13.8 mph - N/A   Clear
9:41 AM 46.4 °F 40.7 °F 35.6 °F 66% 30.82 in 10.0 mi ENE 12.7 mph - N/A   Clear
10:02 AM 46.4 °F 40.1 °F 37.4 °F 71% 30.83 in 10.0 mi East 15.0 mph - N/A   Clear
10:24 AM 50.0 °F - 37.4 °F 62% 30.84 in 10.0 mi East 9.2 mph 16.1 mph N/A   Clear
10:44 AM 50.0 °F - 37.4 °F 62% 30.84 in 10.0 mi ENE 13.8 mph 19.6 mph N/A   Clear
11:00 AM 50.0 °F - 37.4 °F 62% 30.84 in 10.0 mi ENE 9.2 mph 12.7 mph N/A   Clear
11:22 AM 51.8 °F - 37.4 °F 58% 30.84 in 10.0 mi ENE 9.2 mph - N/A   Clear
11:31 AM 53.6 °F - 37.4 °F 54% 30.85 in 10.0 mi East 8.1 mph - N/A   Clear
11:59 AM 51.8 °F - 37.4 °F 58% 30.84 in 10.0 mi East 8.1 mph - N/A   Mostly Cloudy
12:23 PM 51.8 °F - 37.4 °F 58% 30.84 in 10.0 mi NNE 3.5 mph - N/A Thunderstorm Mostly Cloudy
12:44 PM 57.2 °F - 39.2 °F 51% 30.83 in 10.0 mi ENE 8.1 mph - N/A Thunderstorm Scattered Clouds
1:02 PM 53.6 °F - 37.4 °F 54% 30.83 in 10.0 mi ESE 5.8 mph - N/A Thunderstorm Thunderstorm
1:24 PM 55.4 °F - 39.2 °F 54% 30.83 in 10.0 mi ENE 12.7 mph - N/A Thunderstorm Thunderstorm
1:42 PM 57.2 °F - 39.2 °F 51% 30.83 in 10.0 mi ENE 13.8 mph - N/A Thunderstorm Mostly Cloudy
1:52 PM 55.4 °F - 37.4 °F 51% 30.83 in 10.0 mi NNE 3.5 mph 9.2 mph N/A Thunderstorm Mostly Cloudy
2:13 PM 55.4 °F - 37.4 °F 51% 30.83 in 10.0 mi SSE 12.7 mph 20.7 mph N/A Thunderstorm Overcast
2:41 PM 59.0 °F - 35.6 °F 42% 30.81 in 10.0 mi South 6.9 mph - N/A Thunderstorm Thunderstorm
2:56 PM 60.8 °F - 37.4 °F 42% 30.81 in 10.0 mi ENE 3.5 mph - N/A Thunderstorm Clear
3:21 PM 55.4 °F - 37.4 °F 51% 30.80 in 10.0 mi ENE 16.1 mph 20.7 mph N/A   Mostly Cloudy
3:44 PM 53.6 °F - 37.4 °F 54% 30.80 in 10.0 mi NE 17.3 mph - N/A Thunderstorm Mostly Cloudy
4:41 PM 50.0 °F - 39.2 °F 66% 30.79 in 10.0 mi ENE 24.2 mph - N/A Rain , Thunderstorm Rain
5:04 PM 48.2 °F - 44.6 °F 87% 30.81 in 10.0 mi NE 18.4 mph - N/A Rain , Thunderstorm Light Thunderstorms and Rain
5:24 PM 46.4 °F 37.7 °F 42.8 °F 87% 30.79 in 10.0 mi ENE 26.5 mph 33.4 mph N/A Thunderstorm Overcast
5:43 PM 44.6 °F 35.9 °F 42.8 °F 93% 30.80 in 0.2 mi ENE 23.0 mph - N/A Fog , Thunderstorm Unknown
6:04 PM 44.6 °F 34.4 °F 42.8 °F 93% 30.79 in 0.2 mi ENE 32.2 mph 38.0 mph N/A Fog , Thunderstorm Fog
6:20 PM 44.6 °F 34.6 °F 42.8 °F 93% 30.78 in 0.2 mi ENE 31.1 mph 35.7 mph N/A Fog , Thunderstorm Fog
6:39 PM 42.8 °F 30.8 °F 41.0 °F 93% 30.79 in 10.0 mi ENE 40.3 mph - N/A   Overcast
7:05 PM 41.0 °F 30.2 °F 39.2 °F 93% 30.83 in 2.0 mi ENE 27.6 mph 43.7 mph N/A   Overcast
7:24 PM 41.0 °F 29.3 °F 39.2 °F 93% 30.80 in 0.2 mi ENE 33.4 mph 41.4 mph N/A   Light Drizzle
7:40 PM 41.0 °F 30.5 °F 39.2 °F 93% 30.81 in 0.2 mi ENE 26.5 mph - N/A Fog Fog
8:00 PM 41.0 °F 30.9 °F 39.2 °F 93% 30.81 in 0.2 mi ENE 24.2 mph - N/A Fog Fog
8:24 PM 41.0 °F 31.6 °F 37.4 °F 87% 30.82 in 0.2 mi ENE 20.7 mph - N/A Fog Fog
8:41 PM 41.0 °F 32.2 °F 37.4 °F 87% 30.83 in 0.2 mi ENE 18.4 mph - N/A Fog Fog
8:53 PM 39.2 °F 29.0 °F 37.4 °F 93% 30.83 in 0.2 mi ENE 21.9 mph - N/A Fog Fog
9:24 PM 41.0 °F 32.2 °F 37.4 °F 87% 30.84 in 0.2 mi ENE 18.4 mph - N/A Fog Fog
9:44 PM 39.2 °F 30.2 °F 37.4 °F 93% 30.84 in 0.2 mi ENE 17.3 mph - N/A Fog Fog
10:02 PM 39.2 °F 30.2 °F 37.4 °F 93% 30.85 in 10.0 mi ENE 17.3 mph - N/A   Scattered Clouds
10:24 PM 41.0 °F 33.5 °F 35.6 °F 81% 30.85 in 10.0 mi ENE 13.8 mph - N/A   Clear
10:44 PM 42.8 °F 37.5 °F 33.8 °F 70% 30.86 in 10.0 mi East 9.2 mph - N/A   Clear
11:02 PM 44.6 °F 38.1 °F 33.8 °F 66% 30.85 in 10.0 mi East 13.8 mph - N/A   Clear
11:24 PM 42.8 °F 35.8 °F 33.8 °F 70% 30.86 in 10.0 mi ENE 13.8 mph - N/A   Clear
11:44 PM 41.0 °F 32.8 °F 35.6 °F 81% 30.86 in 10.0 mi ENE 16.1 mph - N/A   Clear